False Pass, AK

2:27 AM HST on January 24, 2018 (GMT -1000)
False Pass

Weather History for PAKF - August, 2013

Change the Weather History Date:

Friday, August 23, 2013

  Actual Average (PACD) Record (PACD)
Temperature  
Mean Temperature 59 °F -  
Max Temperature 57 °F 56 °F 67 °F (1953)
Min Temperature 54 °F 47 °F 36 °F (1952)
Degree Days  
Heating Degree Days 6    
Growing Degree Days 9 (Base 50)    
Moisture  
Dew Point 56 °F    
Average Humidity 88    
Maximum Humidity 100    
Minimum Humidity 81    
Precipitation  
Precipitation 0.04 in - - ()
Sea Level Pressure  
Sea Level Pressure 30.11 in    
Wind  
Wind Speed 6 mph (West)    
Max Wind Speed 22 mph    
Max Gust Speed 29 mph    
Visibility 6 miles    
Events Rain    
Averages and records for this station are not official NWS values.
T = Trace of Precipitation, MM = Missing Value Source: NWS Daily Summary

Daily Weather History Graph

Daily Weather History Graph

Search for Another Location

Airport or City:

Trip Planner

Search our weather history database for the weather conditions in past years. The results will help you decide how hot, cold, wet, or windy it might be!

Date:

Astronomy

Aug. 23, 2013 Rise Set
Actual Time 6:44 AM HDT 9:06 PM HDT
Civil Twilight 6:04 AM HDT 9:45 PM HDT
Nautical Twilight 5:13 AM HDT 10:36 PM HDT
Astronomical Twilight 4:11 AM HDT 11:37 PM HDT
Moon 9:46 PM HDT (8/23) 10:34 AM HDT (8/23)
Length of Visible Light 15h 41m
Length of Day
14h 21m
Waning Gibbous, 90% of the Moon is Illuminated
Aug 23
Waning Gibbous
Aug 28
Last Quarter
Sep 5
New
Sep 12
First Quarter
Sep 19
Full

Hourly Weather History & Observations

Time (HDT) Temp. Dew Point Humidity Pressure Visibility Wind Dir Wind Speed Gust Speed Precip Events Conditions
12:01 AM 55.0 °F 54.0 °F 96% 30.30 in 10.0 mi WSW 3.5 mph - N/A   Scattered Clouds
12:12 AM 55.4 °F 55.4 °F 100% 30.02 in 10.0 mi North - - N/A   Mostly Cloudy
12:25 AM 55.4 °F 53.6 °F 94% 30.02 in 10.0 mi Calm Calm - N/A   Mostly Cloudy
1:01 AM 55.0 °F 54.0 °F 96% 30.29 in 10.0 mi North - - N/A   Mostly Cloudy
2:01 AM 55.9 °F 53.1 °F 90% 30.28 in 10.0 mi NW 6.9 mph - N/A   Overcast
3:01 AM 55.0 °F 53.1 °F 93% 30.27 in 10.0 mi Calm Calm - N/A   Overcast
4:01 AM 55.0 °F 53.1 °F 93% 30.27 in 10.0 mi Calm Calm - N/A   Overcast
5:01 AM 54.0 °F 53.1 °F 97% 30.26 in 10.0 mi North - - N/A   Overcast
5:51 AM 55.4 °F 53.6 °F 94% 29.97 in 10.0 mi Calm Calm - 0.00 in Rain Light Rain
5:58 AM 55.4 °F 53.6 °F 94% 29.97 in 10.0 mi Calm Calm - 0.00 in Rain Light Rain
6:01 AM 55.0 °F 54.0 °F 96% 30.25 in 10.0 mi North - - 0.00 in Rain Light Rain
6:08 AM 55.4 °F 53.6 °F 94% 29.97 in 10.0 mi North - - 0.00 in Rain Light Rain
7:01 AM 55.4 °F 53.6 °F 94% 29.97 in 8.0 mi North - - 0.00 in Rain Light Rain
7:09 AM 54.0 °F 53.1 °F 97% 30.25 in 7.0 mi Calm Calm - 0.00 in Rain Light Rain
8:01 AM 55.0 °F 54.0 °F 96% 30.26 in 4.0 mi Calm Calm - 0.01 in Rain Light Rain
8:05 AM 55.4 °F 53.6 °F 94% 29.98 in 2.5 mi WNW 3.5 mph - 0.01 in Rain Light Rain
8:23 AM 55.4 °F 53.6 °F 94% 29.97 in 4.0 mi North - - 0.01 in Rain Light Rain
9:01 AM 55.9 °F 55.0 °F 97% 30.25 in 6.0 mi NNE 6.9 mph - 0.01 in Rain Light Rain
10:01 AM 63.0 °F 60.1 °F 90% 30.24 in 10.0 mi North - - 0.00 in   Overcast
11:01 AM 63.0 °F 59.0 °F 87% 30.25 in 3.0 mi WSW 15.0 mph 23.0 mph 0.00 in Rain Light Rain
12:01 PM 63.0 °F 59.0 °F 87% 30.24 in 6.0 mi North - - 0.00 in   Overcast
1:01 PM 64.0 °F 59.0 °F 84% 30.23 in 7.0 mi SW 10.4 mph - 0.00 in Rain Light Rain
2:01 PM 64.9 °F 59.0 °F 81% 30.22 in 8.0 mi North - - 0.00 in   Overcast
2:54 PM 64.4 °F 59.0 °F 83% 29.94 in 4.0 mi North - - N/A   Haze
3:01 PM 64.9 °F 59.0 °F 81% 30.23 in 5.0 mi WSW 11.5 mph - N/A   Haze
3:08 PM 64.4 °F 59.0 °F 83% 29.94 in 3.0 mi North - - N/A   Haze
3:26 PM 64.4 °F 59.0 °F 83% 29.94 in 4.0 mi North - - 0.00 in Rain Light Rain
4:01 PM 64.0 °F 59.0 °F 84% 30.22 in 3.0 mi WSW 15.0 mph - 0.00 in Rain Light Rain
4:25 PM 64.4 °F 59.0 °F 83% 29.93 in 5.0 mi WSW 9.2 mph 23.0 mph 0.00 in Rain Light Rain
4:33 PM 64.4 °F 59.0 °F 83% 29.93 in 4.0 mi WSW 15.0 mph 25.3 mph 0.00 in Rain Light Rain
4:59 PM 64.4 °F 59.0 °F 83% 29.93 in 2.0 mi WSW 17.3 mph 26.5 mph 0.01 in Rain Light Rain
5:01 PM 64.0 °F 59.0 °F 84% 30.21 in 2.0 mi WSW 12.7 mph 26.5 mph 0.01 in Rain Light Rain
5:30 PM 62.6 °F 59.0 °F 88% 29.93 in 3.0 mi SW 9.2 mph 23.0 mph 0.00 in Rain Light Rain
6:01 PM 63.0 °F 57.9 °F 84% 30.21 in 3.0 mi WSW 21.9 mph 28.8 mph 0.01 in Rain Light Rain
6:26 PM 62.6 °F 57.2 °F 82% 29.93 in 4.0 mi North - - 0.00 in   Overcast
7:01 PM 63.0 °F 57.0 °F 81% 30.20 in 8.0 mi WSW 10.4 mph - 0.00 in   Overcast
7:36 PM 62.6 °F 57.2 °F 82% 29.92 in 3.0 mi SW 6.9 mph 16.1 mph N/A   Overcast
7:39 PM 62.6 °F 57.2 °F 82% 29.93 in 2.5 mi West 9.2 mph 16.1 mph 0.00 in Rain Light Rain
7:47 PM 62.6 °F 57.2 °F 82% 29.92 in 4.0 mi WSW 16.1 mph 24.2 mph 0.00 in Rain Light Rain
8:01 PM 63.0 °F 57.0 °F 81% 30.20 in 3.0 mi WSW 17.3 mph 26.5 mph 0.00 in Rain Light Rain
8:36 PM 62.6 °F 57.2 °F 82% 29.92 in 4.0 mi West 13.8 mph 24.2 mph 0.00 in Rain Light Rain
9:01 PM 62.1 °F 57.0 °F 84% 30.21 in 6.0 mi West 12.7 mph 19.6 mph 0.00 in Rain Light Rain
10:01 PM 62.1 °F 57.0 °F 84% 30.21 in 9.0 mi West 11.5 mph 17.3 mph 0.00 in Rain Light Rain
10:51 PM 57.2 °F 55.4 °F 94% 29.94 in 10.0 mi North 6.9 mph - 0.00 in Rain Light Rain
11:01 PM 57.9 °F 54.0 °F 87% 30.22 in 10.0 mi Variable 6.9 mph - 0.00 in   Overcast